Total_Precipitation_Accumulation
0.00 0.00 0.00 0.01 0.07 0.18 0.25 0.28 0.25 0.20 0.16 0.13 0.12 0.07 0.02 0.00 0.00 0.00 0.00 0.00 0.02 0.16 0.20 0.10 0.08 0.00 0.01 0.00 0.00 0.00 0.00 0.00 0.00 0.00 0.00 0.00 0.00 0.00 0.00 0.01 0.00 0.00 0.00
0.00 0.00 0.00 0.00 0.00 0.02 0.07 0.14 0.21 0.31 0.34 0.39 0.39 0.26 0.15 0.08 0.02 0.00 0.00 0.01 0.03 0.13 0.19 0.16 0.10 0.01 0.00 0.00 0.00 0.00 0.00 0.00 0.00 0.00 0.00 0.00 0.00 0.00 0.00 0.00 0.00 0.00 0.00
0.00 0.00 0.00 0.00 0.00 0.00 0.01 0.04 0.20 0.50 0.61 0.51 0.51 0.48 0.36 0.26 0.18 0.07 0.01 0.01 0.02 0.06 0.15 0.18 0.09 0.03 0.01 0.00 0.00 0.00 0.00 0.00 0.00 0.00 0.00 0.00 0.00 0.00 0.00 0.00 0.00 0.00 0.00
0.00 0.00 0.00 0.00 0.00 0.00 0.00 0.00 0.00 0.00 0.07 0.19 0.21 0.17 0.10 0.04 0.02 0.03 0.03 0.02 0.03 0.03 0.08 0.17 0.12 0.05 0.02 0.02 0.01 0.00 0.00 0.00 0.00 0.00 0.00 0.00 0.00 0.00 0.00 0.00 0.00 0.00 0.00
0.00 0.00 0.00 0.00 0.00 0.00 0.00 0.00 0.00 0.00 0.00 0.00 0.00 0.02 0.04 0.04 0.04 0.04 0.06 0.05 0.06 0.06 0.10 0.20 0.17 0.11 0.05 0.03 0.02 0.01 0.00 0.00 0.00 0.00 0.00 0.00 0.00 0.00 0.00 0.00 0.00 0.00 0.00
0.00 0.00 0.00 0.00 0.00 0.00 0.00 0.00 0.00 0.00 0.00 0.00 0.00 0.01 0.02 0.03 0.05 0.06 0.10 0.09 0.09 0.12 0.12 0.13 0.18 0.14 0.09 0.10 0.11 0.09 0.05 0.02 0.00 0.00 0.00 0.00 0.00 0.00 0.00 0.00 0.00 0.00 0.00
0.00 0.00 0.00 0.00 0.00 0.00 0.00 0.00 0.00 0.01 0.02 0.01 0.03 0.04 0.03 0.02 0.03 0.06 0.10 0.15 0.15 0.16 0.19 0.18 0.14 0.11 0.13 0.22 0.28 0.20 0.15 0.10 0.02 0.00 0.00 0.00 0.00 0.00 0.00 0.00 0.00 0.00 0.00
0.00 0.00 0.00 0.00 0.00 0.00 0.00 0.00 0.00 0.01 0.00 0.03 0.03 0.06 0.08 0.11 0.10 0.07 0.05 0.07 0.10 0.14 0.16 0.20 0.22 0.16 0.11 0.11 0.19 0.26 0.16 0.06 0.02 0.01 0.00 0.00 0.00 0.00 0.00 0.00 0.00 0.00 0.00
0.00 0.00 0.00 0.02 0.02 0.02 0.01 0.01 0.01 0.02 0.02 0.02 0.03 0.06 0.05 0.07 0.11 0.15 0.12 0.11 0.12 0.10 0.11 0.16 0.18 0.17 0.14 0.12 0.12 0.15 0.17 0.10 0.04 0.01 0.01 0.00 0.00 0.00 0.00 0.00 0.00 0.00 0.00
0.00 0.00 0.00 0.01 0.03 0.04 0.04 0.03 0.01 0.02 0.04 0.04 0.03 0.03 0.04 0.02 0.03 0.07 0.10 0.16 0.23 0.26 0.25 0.28 0.36 0.37 0.32 0.26 0.21 0.19 0.16 0.10 0.05 0.03 0.01 0.00 0.00 0.00 0.00 0.00 0.00 0.00 0.00
0.00 0.00 0.00 0.00 0.01 0.02 0.04 0.04 0.03 0.03 0.05 0.05 0.04 0.02 0.05 0.05 0.05 0.03 0.04 0.06 0.12 0.20 0.28 0.32 0.31 0.40 0.54 0.49 0.27 0.22 0.21 0.15 0.09 0.06 0.03 0.01 0.01 0.00 0.00 0.00 0.00 0.00 0.00
0.00 0.00 0.00 0.00 0.00 0.01 0.02 0.04 0.04 0.04 0.05 0.06 0.05 0.03 0.02 0.03 0.03 0.04 0.03 0.05 0.06 0.05 0.10 0.13 0.20 0.25 0.37 0.52 0.47 0.36 0.27 0.22 0.14 0.07 0.03 0.02 0.01 0.00 0.00 0.00 0.00 0.00 0.00
0.00 0.00 0.00 0.00 0.00 0.00 0.01 0.03 0.03 0.03 0.04 0.06 0.06 0.06 0.06 0.07 0.04 0.03 0.04 0.06 0.10 0.09 0.12 0.12 0.12 0.16 0.23 0.23 0.27 0.38 0.34 0.23 0.13 0.09 0.04 0.02 0.00 0.00 0.00 0.00 0.00 0.00 0.00
0.00 0.00 0.00 0.00 0.00 0.00 0.01 0.04 0.05 0.03 0.03 0.04 0.06 0.07 0.07 0.05 0.09 0.12 0.07 0.09 0.11 0.06 0.05 0.07 0.11 0.17 0.24 0.33 0.42 0.43 0.29 0.28 0.18 0.13 0.06 0.02 0.00 0.00 0.00 0.00 0.00 0.00 0.00
0.00 0.00 0.00 0.00 0.00 0.00 0.01 0.03 0.05 0.04 0.05 0.05 0.04 0.04 0.06 0.07 0.07 0.12 0.18 0.21 0.26 0.21 0.11 0.05 0.05 0.10 0.18 0.29 0.35 0.33 0.37 0.37 0.26 0.15 0.06 0.01 0.00 0.00 0.00 0.00 0.00 0.00 0.00
0.00 0.00 0.00 0.00 0.00 0.00 0.00 0.02 0.03 0.06 0.07 0.08 0.08 0.07 0.05 0.05 0.08 0.09 0.12 0.16 0.20 0.25 0.20 0.14 0.13 0.13 0.19 0.28 0.37 0.28 0.26 0.28 0.20 0.13 0.07 0.02 0.01 0.01 0.00 0.00 0.00 0.00 0.00
0.00 0.00 0.00 0.00 0.00 0.00 0.01 0.03 0.03 0.06 0.07 0.06 0.07 0.08 0.07 0.05 0.07 0.08 0.11 0.16 0.18 0.17 0.14 0.11 0.11 0.13 0.16 0.20 0.21 0.19 0.17 0.12 0.10 0.08 0.04 0.02 0.01 0.01 0.00 0.00 0.00 0.00 0.00
0.00 0.00 0.00 0.00 0.00 0.01 0.01 0.03 0.03 0.06 0.07 0.06 0.07 0.08 0.13 0.10 0.08 0.06 0.09 0.14 0.16 0.14 0.12 0.08 0.09 0.12 0.12 0.14 0.14 0.12 0.10 0.09 0.08 0.08 0.05 0.03 0.01 0.00 0.00 0.00 0.00 0.00 0.00
0.00 0.00 0.00 0.00 0.01 0.01 0.02 0.03 0.04 0.08 0.09 0.08 0.07 0.10 0.11 0.20 0.22 0.23 0.22 0.20 0.16 0.17 0.19 0.16 0.10 0.06 0.06 0.06 0.06 0.05 0.03 0.03 0.03 0.03 0.01 0.00 0.00 0.00 0.00 0.00 0.00 0.00 0.00
0.00 0.00 0.01 0.01 0.06 0.14 0.11 0.05 0.08 0.07 0.09 0.14 0.12 0.16 0.19 0.28 0.30 0.31 0.46 0.56 0.49 0.45 0.30 0.19 0.15 0.14 0.12 0.08 0.05 0.03 0.02 0.01 0.00 0.00 0.00 0.00 0.00 0.00 0.00 0.00 0.00 0.00 0.00
0.01 0.04 0.04 0.05 0.18 0.16 0.25 0.21 0.12 0.16 0.07 0.17 0.40 0.40 0.45 0.40 0.51 0.51 0.45 0.43 0.44 0.35 0.36 0.34 0.18 0.12 0.12 0.11 0.08 0.07 0.05 0.04 0.02 0.00 0.00 0.00 0.00 0.00 0.00 0.00 0.00 0.00 0.00
0.02 0.04 0.02 0.00 0.05 0.12 0.30 0.45 0.38 0.37 0.38 0.26 0.51 0.58 0.52 0.60 0.50 0.53 0.51 0.44 0.33 0.34 0.28 0.17 0.17 0.17 0.14 0.10 0.07 0.05 0.03 0.02 0.02 0.00 0.00 0.00 0.00 0.00 0.00 0.00 0.00 0.00 0.00
0.01 0.02 0.03 0.02 0.09 0.16 0.33 0.65 0.59 0.32 0.38 0.37 0.22 0.27 0.18 0.22 0.35 0.36 0.39 0.33 0.24 0.19 0.19 0.20 0.15 0.09 0.06 0.07 0.09 0.08 0.04 0.02 0.01 0.00 0.00 0.00 0.00 0.00 0.00 0.00 0.00 0.00 0.00
0.01 0.02 0.02 0.03 0.16 0.26 0.24 0.50 0.51 0.19 0.17 0.29 0.13 0.08 0.07 0.10 0.17 0.20 0.25 0.23 0.26 0.19 0.14 0.11 0.11 0.09 0.05 0.03 0.01 0.01 0.00 0.00 0.00 0.00 0.00 0.00 0.00 0.00 0.00 0.00 0.00 0.00 0.00
0.01 0.01 0.01 0.03 0.09 0.18 0.21 0.47 0.29 0.20 0.06 0.01 0.00 0.02 0.02 0.01 0.03 0.09 0.09 0.16 0.17 0.11 0.09 0.06 0.05 0.03 0.01 0.00 0.00 0.00 0.00 0.00 0.00 0.00 0.00 0.00 0.00 0.00 0.00 0.00 0.00 0.00 0.00
0.01 0.01 0.01 0.06 0.12 0.08 0.15 0.33 0.30 0.13 0.01 0.00 0.00 0.00 0.00 0.00 0.00 0.00 0.00 0.00 0.01 0.00 0.00 0.00 0.00 0.00 0.00 0.00 0.00 0.00 0.00 0.00 0.00 0.00 0.00 0.00 0.00 0.00 0.00 0.00 0.00 0.00 0.00